Location: Cutler
(25.6150°N, 80.3110°W)
Time: 13:36:52
(UTC-05:00)

Vanguard 1 - Pass Details

Date: 01 February 2018
Orbit: 650 x 3833 km, 34.2° (Epoch: 22 February)

Event Time Altitude Azimuth Distance (km) Brightness Sun altitude
Rises 06:32:05 0° 261° (W) 6,050 - -7.9°
Exits shadow 06:32:56 - 258° (WSW) 5,984 13.5 -7.7°
Reaches altitude 10° 06:39:43 10° 236° (SW) 5,763 13.6 -6.2°
Maximum altitude 06:46:23 13° 214° (SW) 6,007 13.9 -4.8°
Drops below altitude 10° 06:54:03 10° 193° (SSW) 6,668 14.4 -3.1°
Sets 07:05:24 0° 169° (S) 7,961 15.1 -0.7°
